Bentonville, AR

9:53 AM CST on February 24, 2017 (GMT -0600)
Northwest Arkansas Regional

Weather History for KXNA - August, 2012

Change the Weather History Date:

Thursday, August 16, 2012

  Actual Average (KVBT) Record (KVBT)
Temperature  
Mean Temperature 83 °F -  
Max Temperature 97 °F 87 °F 106 °F (1956)
Min Temperature 69 °F 65 °F 47 °F (1992)
Cooling Degree Days 18    
Growing Degree Days 33 (Base 50)    
Moisture  
Dew Point 69 °F    
Average Humidity 72    
Maximum Humidity 97    
Minimum Humidity 33    
Precipitation  
Precipitation 0.12 in - - ()
Sea Level Pressure  
Sea Level Pressure 29.92 in    
Wind  
Wind Speed 8 mph (SW)    
Max Wind Speed 21 mph    
Max Gust Speed 38 mph    
Visibility 10 miles    
Events Rain , Thunderstorm    
Averages and records for this station are not official NWS values.
T = Trace of Precipitation, MM = Missing Value Source: NWS Daily Summary

Daily Weather History Graph

Daily Weather History Graph

Search for Another Location

Airport or City:

Trip Planner

Search our weather history database for the weather conditions in past years. The results will help you decide how hot, cold, wet, or windy it might be!

Date:

Astronomy

Aug. 16, 2012 Rise Set
Actual Time 6:36 AM CDT 8:05 PM CDT
Civil Twilight 6:09 AM CDT 8:32 PM CDT
Nautical Twilight 5:36 AM CDT 9:05 PM CDT
Astronomical Twilight 5:02 AM CDT 9:39 PM CDT
Moon 5:36 AM CDT (8/16) 7:16 PM CDT (8/16)
Length of Visible Light 14h 23m
Length of Day
13h 29m
Waning Crescent, 1% of the Moon is Illuminated
Aug 16
Waning Crescent
Aug 17
New
Aug 24
First Quarter
Aug 31
Full
Sep 8
Last Quarter

Hourly Weather History & Observations

Time (CDT) Temp. Heat Index Dew Point Humidity Pressure Visibility Wind Dir Wind Speed Gust Speed Precip Events Conditions
12:53 AM 78.1 °F - 66.9 °F 68% 29.90 in 10.0 mi South 5.8 mph - N/A   Clear
1:53 AM 77.0 °F - 68.0 °F 74% 29.91 in 10.0 mi South 5.8 mph - N/A   Clear
2:53 AM 75.0 °F - 68.0 °F 79% 29.91 in 10.0 mi South 4.6 mph - N/A   Clear
3:53 AM 75.0 °F - 69.1 °F 82% 29.91 in 10.0 mi South 4.6 mph - N/A   Mostly Cloudy
4:53 AM 73.9 °F - 69.1 °F 85% 29.91 in 10.0 mi South 4.6 mph - N/A   Scattered Clouds
5:53 AM 73.9 °F - 69.1 °F 85% 29.92 in 10.0 mi South 5.8 mph - N/A   Mostly Cloudy
6:53 AM 73.0 °F - 68.0 °F 84% 29.94 in 10.0 mi South 3.5 mph - N/A   Mostly Cloudy
7:53 AM 77.0 °F - 69.1 °F 76% 29.95 in 10.0 mi South 6.9 mph - N/A   Partly Cloudy
8:53 AM 81.0 °F 84.1 °F 69.1 °F 67% 29.94 in 10.0 mi SSW 10.4 mph - N/A   Clear
9:53 AM 84.9 °F 88.2 °F 68.0 °F 57% 29.94 in 10.0 mi SW 15.0 mph - N/A   Clear
10:53 AM 89.1 °F 91.3 °F 66.0 °F 46% 29.94 in 10.0 mi SSW 16.1 mph - N/A   Scattered Clouds
11:53 AM 89.1 °F 91.3 °F 66.0 °F 46% 29.94 in 10.0 mi SSW 10.4 mph - N/A   Mostly Cloudy
12:53 PM 93.0 °F 94.6 °F 64.0 °F 38% 29.92 in 10.0 mi West 11.5 mph 19.6 mph N/A   Clear
1:53 PM 96.1 °F 97.3 °F 63.0 °F 33% 29.90 in 10.0 mi West 10.4 mph 21.9 mph N/A   Clear
2:10 PM 93.2 °F 94.1 °F 62.6 °F 36% 29.95 in 10.0 mi SW 11.5 mph - N/A Thunderstorm Partly Cloudy
2:25 PM 87.8 °F 90.4 °F 66.2 °F 49% 29.95 in 9.0 mi West 15.0 mph 25.3 mph 0.00 in Rain Light Rain
2:34 PM 84.2 °F 87.3 °F 68.0 °F 58% 29.95 in 10.0 mi West 10.4 mph - 0.00 in Rain , Thunderstorm Light Thunderstorms and Rain
2:53 PM 79.0 °F - 68.0 °F 69% 29.92 in 10.0 mi WNW 20.7 mph 38.0 mph 0.00 in Thunderstorm Thunderstorm
3:16 PM 73.4 °F - 68.0 °F 83% 29.94 in 2.5 mi WNW 11.5 mph - 0.10 in Rain , Thunderstorm Rain
3:23 PM 75.2 °F - 68.0 °F 78% 29.93 in 10.0 mi WNW 10.4 mph - 0.10 in Rain Light Rain
3:53 PM 77.0 °F - - N/A% 29.88 in 10.0 mi WSW 5.8 mph - 0.10 in   Scattered Clouds
4:53 PM 84.0 °F 96.0 °F 79.0 °F 85% 29.85 in 10.0 mi WSW 6.9 mph - N/A   Clear
5:53 PM 81.0 °F 85.8 °F 73.0 °F 77% 29.86 in 10.0 mi North 8.1 mph - N/A   Partly Cloudy
6:30 PM 78.8 °F - 71.6 °F 78% 29.90 in 10.0 mi NNW 6.9 mph - N/A Thunderstorm Partly Cloudy
6:45 PM 78.8 °F - 71.6 °F 78% 29.92 in 10.0 mi NW 4.6 mph - 0.00 in Rain Light Rain
6:53 PM 78.1 °F - 71.1 °F 79% 29.88 in 10.0 mi West 4.6 mph - 0.00 in Rain Light Rain
7:27 PM 78.8 °F - 69.8 °F 74% 29.91 in 10.0 mi West 4.6 mph - 0.00 in Thunderstorm Thunderstorm
7:53 PM 75.9 °F - 70.0 °F 82% 29.88 in 10.0 mi NNW 5.8 mph - 0.00 in Thunderstorm Thunderstorm
8:53 PM 73.0 °F - 70.0 °F 90% 29.95 in 10.0 mi SSW 13.8 mph 18.4 mph 0.02 in Thunderstorm Mostly Cloudy
9:24 PM 75.2 °F - 69.8 °F 83% 30.01 in 10.0 mi SSW 4.6 mph - N/A   Overcast
9:53 PM 72.0 °F - 69.1 °F 91% 29.94 in 10.0 mi East 6.9 mph - 0.00 in   Mostly Cloudy
10:53 PM 70.0 °F - 69.1 °F 97% 29.95 in 10.0 mi SSW 5.8 mph - N/A   Clear
11:53 PM 69.1 °F - 68.0 °F 96% 29.97 in 10.0 mi West 3.5 mph - N/A   Clear